Regional Weather Roundup
Issued by NWS Green Bay, WI

Home | Current Version | Previous Version | Graphics & Text | Print | Product List | Glossary Off
Versions: 1 2 3 4 5 6 7 8 9 10 11 12 13 14 15 16 17 18 19 20 21 22 23 24 25 26 27 28 29 30 31 32 33 34 35 36 37 38 39 40 41 42 43 44 45 46 47 48 49 50

000
ASUS43 KGRB 190300
RWRGRB

NORTH-CENTRAL AND NORTHEAST WISCONSIN REGIONAL WEATHER ROUNDUP
NATIONAL WEATHER SERVICE GREEN BAY WI
1000 PM CDT WED APR 18 2018

WIZ005-009-010>012-018-019-190400-
NORTH CENTRAL WISCONSIN

CITY           SKY/WX    TMP DP  RH WIND       PRES   REMARKS
IRONWOOD       FAIR      26  18  71 W3        30.17R
MANITOWISH WTR NOT AVBL
ARBOR VITAE    NOT AVBL
EAGLE RIVER    FAIR      30  16  56 N5        30.09R
LAND O LAKES   FAIR      30  17  59 N3        30.11R
RHINELANDER    FAIR      31  19  61 N6        30.10R
PHILLIPS       FAIR      31  16  53 N9        30.12R
ANTIGO         NOT AVBL
TOMAHAWK       NOT AVBL
MERRILL          N/A     34  22  61 N12       30.09R
$$

WIZ013-073-190400-
NORTHEAST WISCONSIN

CITY           SKY/WX    TMP DP  RH WIND       PRES   REMARKS
IRON MOUNTAIN  FAIR      32  17  54 N9        30.05R
MARINETTE      FAIR      35  20  54 N12G21    30.05R
$$

WIZ017-030-035>037-045-190400-
CENTRAL WISCONSIN

CITY           SKY/WX    TMP DP  RH WIND       PRES   REMARKS
MEDFORD        NOT AVBL
WAUSAU         FAIR      35  22  58 N12G18    30.06R
MOSINEE        MOCLDY    36  23  60 N16G25    30.07R
MARSHFIELD     FAIR      36  22  56 NE15G25   30.04R
WISC RAPIDS    FAIR      36  23  59 NE10      30.05R
STEVENS POINT  NOT AVBL
WAUPACA        FAIR      38  24  58 N16G28    30.03R
SHAWANO        FAIR      36  26  66 N10       30.06R
CLINTONVILLE   FAIR      36  24  61 N10       30.05R
WAUTOMA        MOCLDY    31  30  96 N5        30.04R
$$

WIZ038-039-048-051-190400-
FOX VALLEY

CITY           SKY/WX    TMP DP  RH WIND       PRES   REMARKS
NWS GREEN BAY  MOCLDY    36  25  64 N16       30.03R
APPLETON       MOCLDY    34  23  64 N21G28    29.99R
OSHKOSH        MOCLDY    35  27  72 N17       29.99R
FOND DU LAC    CLOUDY    35  27  72 N17       29.99R
$$

WIZ022-050-052-190400-
EAST CENTRAL WISCONSIN

CITY           SKY/WX    TMP DP  RH WIND       PRES   REMARKS
EPHRAIM        NOT AVBL
WASHINGTON ISL NOT AVBL
STURGEON BAY   FAIR      34  25  69 N10       30.04R
MANITOWOC      FAIR      35  26  69 N15G24    29.99R
SHEBOYGAN      CLOUDY    35  29  78 N14G22    29.96R
$$

LMZ563-521-522-541>543-190400-
LAKESHORE

STATION/POSITION TIME  TEMP    WIND        PRES    VSBY  WAVE
                       AIR SEA DIR/SP/G                  HT/PER
                 (UTC) (F)     (DEG/KT/KT) (MB)    (MI)  (FT/S)
SHEBOYGAN LKSHOR 0200   36      20/ 23/ 25 1014.6R
KEWAUNEE LKSHORE 0230   35     350/ 10/ 14 1015.5R
NORTHPORT PIER   0240   34                 1016.6R
SISTER BAY LKSHO 0227   34      80/ 14/ 18   N/A
MENOMINEE LKSHOR 0224   35     340/ 17/ 21 1016.6
$$




USA.gov is the U.S. government's official web portal to all federal, state and local government web resources and services.